owner,sensor,date,latitude,longitude,air_temperature,qcFlag 
COMPS,ioos:station:USF.COMPS:C10:1,2008-12-03T04:00:00Z,27.1690,-82.9260,12.63,1111122 
COMPS,ioos:station:USF.COMPS:C10:1,2008-12-03T04:20:00Z,27.1690,-82.9260,12.54,1111122 
COMPS,ioos:station:USF.COMPS:C10:1,2008-12-03T04:40:00Z,27.1690,-82.9260,12.7,1111122 
COMPS,ioos:station:USF.COMPS:C10:1,2008-12-03T05:00:00Z,27.1690,-82.9260,12.52,1111122 
COMPS,ioos:station:USF.COMPS:C10:1,2008-12-03T05:20:00Z,27.1690,-82.9260,12.45,1111122 
COMPS,ioos:station:USF.COMPS:C10:1,2008-12-03T05:40:00Z,27.1690,-82.9260,12.49,1111122 
COMPS,ioos:station:USF.COMPS:C10:1,2008-12-03T06:00:00Z,27.1690,-82.9260,12.64,1111122 
COMPS,ioos:station:USF.COMPS:C10:1,2008-12-03T06:20:00Z,27.1690,-82.9260,12.55,1111122 
COMPS,ioos:station:USF.COMPS:C10:1,2008-12-03T06:40:00Z,27.1690,-82.9260,12.58,1111122 
COMPS,ioos:station:USF.COMPS:C10:1,2008-12-03T07:00:00Z,27.1690,-82.9260,12.67,1111122 
COMPS,ioos:station:USF.COMPS:C10:1,2008-12-03T07:20:00Z,27.1690,-82.9260,12.58,1111122 
COMPS,ioos:station:USF.COMPS:C10:1,2008-12-03T07:40:00Z,27.1690,-82.9260,12.17,1111122 
COMPS,ioos:station:USF.COMPS:C10:1,2008-12-03T08:00:00Z,27.1690,-82.9260,12.43,1111122 
COMPS,ioos:station:USF.COMPS:C10:1,2008-12-03T08:20:00Z,27.1690,-82.9260,12.22,1111122 
COMPS,ioos:station:USF.COMPS:C10:1,2008-12-03T08:40:00Z,27.1690,-82.9260,12.07,1111122 
COMPS,ioos:station:USF.COMPS:C10:1,2008-12-03T09:00:00Z,27.1690,-82.9260,11.89,1111122 
COMPS,ioos:station:USF.COMPS:C10:1,2008-12-03T09:20:00Z,27.1690,-82.9260,12.01,1111122 
COMPS,ioos:station:USF.COMPS:C10:1,2008-12-03T09:40:00Z,27.1690,-82.9260,12.11,1111122 
COMPS,ioos:station:USF.COMPS:C10:1,2008-12-03T10:00:00Z,27.1690,-82.9260,12.07,1111122 
COMPS,ioos:station:USF.COMPS:C10:1,2008-12-03T10:20:00Z,27.1690,-82.9260,11.69,1111122 
COMPS,ioos:station:USF.COMPS:C10:1,2008-12-03T10:40:00Z,27.1690,-82.9260,11.95,1111122 
COMPS,ioos:station:USF.COMPS:C10:1,2008-12-03T11:00:00Z,27.1690,-82.9260,11.75,1111122 
COMPS,ioos:station:USF.COMPS:C10:1,2008-12-03T11:20:00Z,27.1690,-82.9260,11.76,1111122 
COMPS,ioos:station:USF.COMPS:C10:1,2008-12-03T11:40:00Z,27.1690,-82.9260,11.71,1111122 
COMPS,ioos:station:USF.COMPS:C10:1,2008-12-03T12:00:00Z,27.1690,-82.9260,11.7,1111122 
COMPS,ioos:station:USF.COMPS:C10:1,2008-12-03T12:20:00Z,27.1690,-82.9260,11.73,1111122 
COMPS,ioos:station:USF.COMPS:C10:1,2008-12-03T12:40:00Z,27.1690,-82.9260,11.95,1111122 
COMPS,ioos:station:USF.COMPS:C10:1,2008-12-03T13:00:00Z,27.1690,-82.9260,12.25,1111122 
COMPS,ioos:station:USF.COMPS:C10:1,2008-12-03T13:20:00Z,27.1690,-82.9260,12.53,1111122 
COMPS,ioos:station:USF.COMPS:C10:1,2008-12-03T13:40:00Z,27.1690,-82.9260,12.54,1111122 
COMPS,ioos:station:USF.COMPS:C10:1,2008-12-03T14:00:00Z,27.1690,-82.9260,12.74,1111122 
COMPS,ioos:station:USF.COMPS:C10:1,2008-12-03T14:20:00Z,27.1690,-82.9260,12.89,1111122 
COMPS,ioos:station:USF.COMPS:C10:1,2008-12-03T14:40:00Z,27.1690,-82.9260,12.95,1111122 
COMPS,ioos:station:USF.COMPS:C10:1,2008-12-03T15:00:00Z,27.1690,-82.9260,13.19,1111122 
COMPS,ioos:station:USF.COMPS:C10:1,2008-12-03T15:20:00Z,27.1690,-82.9260,13.25,1111122 
COMPS,ioos:station:USF.COMPS:C10:1,2008-12-03T15:40:00Z,27.1690,-82.9260,13.19,1111122 
COMPS,ioos:station:USF.COMPS:C10:1,2008-12-03T16:00:00Z,27.1690,-82.9260,13.44,1111122 
COMPS,ioos:station:USF.COMPS:C10:1,2008-12-03T16:20:00Z,27.1690,-82.9260,13.63,1111122 
COMPS,ioos:station:USF.COMPS:C10:1,2008-12-03T16:40:00Z,27.1690,-82.9260,13.74,1111122 
COMPS,ioos:station:USF.COMPS:C10:1,2008-12-03T17:00:00Z,27.1690,-82.9260,13.83,1111122 
COMPS,ioos:station:USF.COMPS:C10:1,2008-12-03T17:20:00Z,27.1690,-82.9260,14.03,1111122 
COMPS,ioos:station:USF.COMPS:C10:1,2008-12-03T17:40:00Z,27.1690,-82.9260,14.14,1111122 
COMPS,ioos:station:USF.COMPS:C10:1,2008-12-03T18:00:00Z,27.1690,-82.9260,14.29,1111122 
COMPS,ioos:station:USF.COMPS:C10:1,2008-12-03T18:20:00Z,27.1690,-82.9260,14.58,1111122 
COMPS,ioos:station:USF.COMPS:C10:1,2008-12-03T18:40:00Z,27.1690,-82.9260,14.93,1111122 
COMPS,ioos:station:USF.COMPS:C10:1,2008-12-03T19:00:00Z,27.1690,-82.9260,15.02,1111122 
COMPS,ioos:station:USF.COMPS:C10:1,2008-12-03T19:20:00Z,27.1690,-82.9260,15.34,1111122 
COMPS,ioos:station:USF.COMPS:C10:1,2008-12-03T19:40:00Z,27.1690,-82.9260,15.52,1111122 
COMPS,ioos:station:USF.COMPS:C10:1,2008-12-03T20:00:00Z,27.1690,-82.9260,15.7,1111122 
COMPS,ioos:station:USF.COMPS:C10:1,2008-12-03T20:20:00Z,27.1690,-82.9260,16.0,1111122 
COMPS,ioos:station:USF.COMPS:C10:1,2008-12-03T20:40:00Z,27.1690,-82.9260,16.41,1111122 
COMPS,ioos:station:USF.COMPS:C10:1,2008-12-03T21:00:00Z,27.1690,-82.9260,16.77,1111122 
COMPS,ioos:station:USF.COMPS:C10:1,2008-12-03T21:20:00Z,27.1690,-82.9260,17.07,1111122 
COMPS,ioos:station:USF.COMPS:C10:1,2008-12-03T21:40:00Z,27.1690,-82.9260,17.37,1111122 
COMPS,ioos:station:USF.COMPS:C10:1,2008-12-03T22:00:00Z,27.1690,-82.9260,17.45,1111122 
COMPS,ioos:station:USF.COMPS:C10:1,2008-12-03T22:20:00Z,27.1690,-82.9260,16.82,1111122 
COMPS,ioos:station:USF.COMPS:C10:1,2008-12-03T22:40:00Z,27.1690,-82.9260,17.73,1111122 
COMPS,ioos:station:USF.COMPS:C10:1,2008-12-03T23:00:00Z,27.1690,-82.9260,17.75,1111122 
COMPS,ioos:station:USF.COMPS:C10:1,2008-12-03T23:20:00Z,27.1690,-82.9260,17.86,1111122 
COMPS,ioos:station:USF.COMPS:C10:1,2008-12-03T23:40:00Z,27.1690,-82.9260,17.9,1111122 
COMPS,ioos:station:USF.COMPS:C10:1,2008-12-04T00:00:00Z,27.1690,-82.9260,18.11,1111122 
COMPS,ioos:station:USF.COMPS:C10:1,2008-12-04T00:20:00Z,27.1690,-82.9260,17.92,1111122 
COMPS,ioos:station:USF.COMPS:C10:1,2008-12-04T00:40:00Z,27.1690,-82.9260,17.84,1111122 
COMPS,ioos:station:USF.COMPS:C10:1,2008-12-04T01:00:00Z,27.1690,-82.9260,17.8,1111122 
COMPS,ioos:station:USF.COMPS:C10:1,2008-12-04T01:20:00Z,27.1690,-82.9260,18.04,1111122 
COMPS,ioos:station:USF.COMPS:C10:1,2008-12-04T01:40:00Z,27.1690,-82.9260,18.18,1111122 
COMPS,ioos:station:USF.COMPS:C10:1,2008-12-04T02:00:00Z,27.1690,-82.9260,18.36,1111122 
COMPS,ioos:station:USF.COMPS:C10:1,2008-12-04T02:20:00Z,27.1690,-82.9260,18.31,1111122 
COMPS,ioos:station:USF.COMPS:C10:1,2008-12-04T02:40:00Z,27.1690,-82.9260,18.4,1111122 
COMPS,ioos:station:USF.COMPS:C10:1,2008-12-04T03:00:00Z,27.1690,-82.9260,18.31,1111122 
COMPS,ioos:station:USF.COMPS:C10:1,2008-12-04T03:20:00Z,27.1690,-82.9260,18.34,1111122 
COMPS,ioos:station:USF.COMPS:C10:1,2008-12-04T03:40:00Z,27.1690,-82.9260,18.5,1111122 
COMPS,ioos:station:USF.COMPS:C10:1,2008-12-04T04:00:00Z,27.1690,-82.9260,18.37,1111122 
COMPS,ioos:station:USF.COMPS:C10:1,2008-12-04T04:20:00Z,27.1690,-82.9260,18.31,1111122 
COMPS,ioos:station:USF.COMPS:C10:1,2008-12-04T04:40:00Z,27.1690,-82.9260,18.23,1111122 
COMPS,ioos:station:USF.COMPS:C10:1,2008-12-04T05:00:00Z,27.1690,-82.9260,18.14,1111122 
COMPS,ioos:station:USF.COMPS:C10:1,2008-12-04T05:20:00Z,27.1690,-82.9260,18.13,1111122 
COMPS,ioos:station:USF.COMPS:C10:1,2008-12-04T05:40:00Z,27.1690,-82.9260,18.17,1111122 
COMPS,ioos:station:USF.COMPS:C10:1,2008-12-04T06:00:00Z,27.1690,-82.9260,18.33,1111122 
COMPS,ioos:station:USF.COMPS:C10:1,2008-12-04T06:20:00Z,27.1690,-82.9260,17.91,1111122 
COMPS,ioos:station:USF.COMPS:C10:1,2008-12-04T06:40:00Z,27.1690,-82.9260,18.02,1111122 
COMPS,ioos:station:USF.COMPS:C10:1,2008-12-04T07:00:00Z,27.1690,-82.9260,17.83,1111122 
COMPS,ioos:station:USF.COMPS:C10:1,2008-12-04T07:20:00Z,27.1690,-82.9260,17.72,1111122 
COMPS,ioos:station:USF.COMPS:C10:1,2008-12-04T07:40:00Z,27.1690,-82.9260,17.57,1111122 
COMPS,ioos:station:USF.COMPS:C10:1,2008-12-04T08:00:00Z,27.1690,-82.9260,17.42,1111122 
COMPS,ioos:station:USF.COMPS:C10:1,2008-12-04T08:20:00Z,27.1690,-82.9260,17.45,1111122 
COMPS,ioos:station:USF.COMPS:C10:1,2008-12-04T08:40:00Z,27.1690,-82.9260,17.61,1111122 
COMPS,ioos:station:USF.COMPS:C10:1,2008-12-04T09:00:00Z,27.1690,-82.9260,17.6,1111122 
COMPS,ioos:station:USF.COMPS:C10:1,2008-12-04T09:20:00Z,27.1690,-82.9260,17.51,1111122 
COMPS,ioos:station:USF.COMPS:C10:1,2008-12-04T09:40:00Z,27.1690,-82.9260,17.4,1111122 
COMPS,ioos:station:USF.COMPS:C10:1,2008-12-04T10:00:00Z,27.1690,-82.9260,17.31,1111122 
COMPS,ioos:station:USF.COMPS:C10:1,2008-12-04T10:20:00Z,27.1690,-82.9260,17.3,1111122 
COMPS,ioos:station:USF.COMPS:C10:1,2008-12-04T10:40:00Z,27.1690,-82.9260,17.2,1111122 
COMPS,ioos:station:USF.COMPS:C10:1,2008-12-04T11:00:00Z,27.1690,-82.9260,17.16,1111122 
COMPS,ioos:station:USF.COMPS:C10:1,2008-12-04T11:20:00Z,27.1690,-82.9260,17.14,1111122 
COMPS,ioos:station:USF.COMPS:C10:1,2008-12-04T11:40:00Z,27.1690,-82.9260,17.12,1111122 
COMPS,ioos:station:USF.COMPS:C10:1,2008-12-04T12:00:00Z,27.1690,-82.9260,17.22,1111122 
COMPS,ioos:station:USF.COMPS:C10:1,2008-12-04T12:20:00Z,27.1690,-82.9260,17.17,1111122 
COMPS,ioos:station:USF.COMPS:C10:1,2008-12-04T12:40:00Z,27.1690,-82.9260,17.29,1111122 
COMPS,ioos:station:USF.COMPS:C10:1,2008-12-04T13:00:00Z,27.1690,-82.9260,17.41,1111122 
COMPS,ioos:station:USF.COMPS:C10:1,2008-12-04T13:20:00Z,27.1690,-82.9260,17.56,1111122 
COMPS,ioos:station:USF.COMPS:C10:1,2008-12-04T13:40:00Z,27.1690,-82.9260,17.52,1111122 
COMPS,ioos:station:USF.COMPS:C10:1,2008-12-04T14:00:00Z,27.1690,-82.9260,17.6,1111122 
COMPS,ioos:station:USF.COMPS:C10:1,2008-12-04T14:20:00Z,27.1690,-82.9260,17.8,1111122 
COMPS,ioos:station:USF.COMPS:C10:1,2008-12-04T14:40:00Z,27.1690,-82.9260,17.83,1111122 
COMPS,ioos:station:USF.COMPS:C10:1,2008-12-04T15:00:00Z,27.1690,-82.9260,18.02,1111122 
COMPS,ioos:station:USF.COMPS:C10:1,2008-12-04T15:20:00Z,27.1690,-82.9260,18.11,1111122 
COMPS,ioos:station:USF.COMPS:C10:1,2008-12-04T15:40:00Z,27.1690,-82.9260,18.21,1111122 
COMPS,ioos:station:USF.COMPS:C10:1,2008-12-04T16:00:00Z,27.1690,-82.9260,18.24,1111122 
COMPS,ioos:station:USF.COMPS:C10:1,2008-12-04T16:20:00Z,27.1690,-82.9260,18.35,1111122 
COMPS,ioos:station:USF.COMPS:C10:1,2008-12-04T16:40:00Z,27.1690,-82.9260,18.71,1111122 
COMPS,ioos:station:USF.COMPS:C10:1,2008-12-04T17:00:00Z,27.1690,-82.9260,18.92,1111122 
COMPS,ioos:station:USF.COMPS:C10:1,2008-12-04T17:20:00Z,27.1690,-82.9260,19.21,1111122 
COMPS,ioos:station:USF.COMPS:C10:1,2008-12-04T17:40:00Z,27.1690,-82.9260,19.37,1111122 
COMPS,ioos:station:USF.COMPS:C10:1,2008-12-04T18:00:00Z,27.1690,-82.9260,19.45,1111122 
COMPS,ioos:station:USF.COMPS:C10:1,2008-12-04T18:20:00Z,27.1690,-82.9260,19.54,1111122 
COMPS,ioos:station:USF.COMPS:C10:1,2008-12-04T18:40:00Z,27.1690,-82.9260,19.5,1111122 
COMPS,ioos:station:USF.COMPS:C10:1,2008-12-04T19:00:00Z,27.1690,-82.9260,19.6,1111122 
COMPS,ioos:station:USF.COMPS:C10:1,2008-12-04T19:20:00Z,27.1690,-82.9260,19.51,1111122 
COMPS,ioos:station:USF.COMPS:C10:1,2008-12-04T19:40:00Z,27.1690,-82.9260,19.36,1111122 
COMPS,ioos:station:USF.COMPS:C10:1,2008-12-04T20:00:00Z,27.1690,-82.9260,19.22,1111122 
COMPS,ioos:station:USF.COMPS:C10:1,2008-12-04T20:20:00Z,27.1690,-82.9260,19.43,1111122 
COMPS,ioos:station:USF.COMPS:C10:1,2008-12-04T20:40:00Z,27.1690,-82.9260,19.41,1111122 
COMPS,ioos:station:USF.COMPS:C10:1,2008-12-04T21:00:00Z,27.1690,-82.9260,19.47,1111122 
COMPS,ioos:station:USF.COMPS:C10:1,2008-12-04T21:20:00Z,27.1690,-82.9260,19.57,1111122 
COMPS,ioos:station:USF.COMPS:C10:1,2008-12-04T21:40:00Z,27.1690,-82.9260,19.73,1111122 
COMPS,ioos:station:USF.COMPS:C10:1,2008-12-04T22:00:00Z,27.1690,-82.9260,19.84,1111122 
COMPS,ioos:station:USF.COMPS:C10:1,2008-12-04T22:20:00Z,27.1690,-82.9260,19.89,1111122 
COMPS,ioos:station:USF.COMPS:C10:1,2008-12-04T22:40:00Z,27.1690,-82.9260,19.79,1111122 
COMPS,ioos:station:USF.COMPS:C10:1,2008-12-04T23:00:00Z,27.1690,-82.9260,19.81,1111122 
COMPS,ioos:station:USF.COMPS:C10:1,2008-12-04T23:20:00Z,27.1690,-82.9260,19.61,1111122 
COMPS,ioos:station:USF.COMPS:C10:1,2008-12-04T23:40:00Z,27.1690,-82.9260,19.41,1111122 
COMPS,ioos:station:USF.COMPS:C10:1,2008-12-05T00:00:00Z,27.1690,-82.9260,19.61,1111122 
COMPS,ioos:station:USF.COMPS:C10:1,2008-12-05T00:20:00Z,27.1690,-82.9260,19.71,1111122 
COMPS,ioos:station:USF.COMPS:C10:1,2008-12-05T00:40:00Z,27.1690,-82.9260,19.9,1111122 
COMPS,ioos:station:USF.COMPS:C10:1,2008-12-05T01:00:00Z,27.1690,-82.9260,19.51,1111122 
COMPS,ioos:station:USF.COMPS:C10:1,2008-12-05T01:20:00Z,27.1690,-82.9260,19.24,1111122 
COMPS,ioos:station:USF.COMPS:C10:1,2008-12-05T01:40:00Z,27.1690,-82.9260,19.44,1111122 
COMPS,ioos:station:USF.COMPS:C10:1,2008-12-05T02:00:00Z,27.1690,-82.9260,19.57,1111122 
COMPS,ioos:station:USF.COMPS:C10:1,2008-12-05T02:20:00Z,27.1690,-82.9260,19.49,1111122 
COMPS,ioos:station:USF.COMPS:C10:1,2008-12-05T02:40:00Z,27.1690,-82.9260,19.49,1111122 
COMPS,ioos:station:USF.COMPS:C10:1,2008-12-05T03:00:00Z,27.1690,-82.9260,19.47,1111122 
COMPS,ioos:station:USF.COMPS:C10:1,2008-12-05T03:20:00Z,27.1690,-82.9260,19.44,1111122 
COMPS,ioos:station:USF.COMPS:C10:1,2008-12-05T03:40:00Z,27.1690,-82.9260,19.25,1111122 
COMPS,ioos:station:USF.COMPS:C10:1,2008-12-05T04:00:00Z,27.1690,-82.9260,19.33,1111122 
COMPS,ioos:station:USF.COMPS:C10:1,2008-12-05T04:20:00Z,27.1690,-82.9260,19.54,1111122 
COMPS,ioos:station:USF.COMPS:C10:1,2008-12-05T04:40:00Z,27.1690,-82.9260,19.49,1111122 
COMPS,ioos:station:USF.COMPS:C10:1,2008-12-05T05:00:00Z,27.1690,-82.9260,19.28,1111122 
COMPS,ioos:station:USF.COMPS:C10:1,2008-12-05T05:20:00Z,27.1690,-82.9260,19.22,1111122 
COMPS,ioos:station:USF.COMPS:C10:1,2008-12-05T05:40:00Z,27.1690,-82.9260,19.26,1111122 
COMPS,ioos:station:USF.COMPS:C10:1,2008-12-05T06:00:00Z,27.1690,-82.9260,19.27,1111122 
COMPS,ioos:station:USF.COMPS:C10:1,2008-12-05T06:20:00Z,27.1690,-82.9260,18.98,1111122 
COMPS,ioos:station:USF.COMPS:C10:1,2008-12-05T06:40:00Z,27.1690,-82.9260,18.79,1111122 
COMPS,ioos:station:USF.COMPS:C10:1,2008-12-05T07:00:00Z,27.1690,-82.9260,18.59,1111122 
COMPS,ioos:station:USF.COMPS:C10:1,2008-12-05T07:20:00Z,27.1690,-82.9260,18.59,1111122 
COMPS,ioos:station:USF.COMPS:C10:1,2008-12-05T07:40:00Z,27.1690,-82.9260,18.56,1111122 
COMPS,ioos:station:USF.COMPS:C10:1,2008-12-05T08:00:00Z,27.1690,-82.9260,18.43,1111122 
COMPS,ioos:station:USF.COMPS:C10:1,2008-12-05T08:20:00Z,27.1690,-82.9260,18.38,1111122 
COMPS,ioos:station:USF.COMPS:C10:1,2008-12-05T08:40:00Z,27.1690,-82.9260,18.05,1111122 
COMPS,ioos:station:USF.COMPS:C10:1,2008-12-05T09:00:00Z,27.1690,-82.9260,18.12,1111122 
COMPS,ioos:station:USF.COMPS:C10:1,2008-12-05T09:20:00Z,27.1690,-82.9260,18.19,1111122 
COMPS,ioos:station:USF.COMPS:C10:1,2008-12-05T09:40:00Z,27.1690,-82.9260,18.33,1111122 
COMPS,ioos:station:USF.COMPS:C10:1,2008-12-05T10:00:00Z,27.1690,-82.9260,18.51,1111122 
COMPS,ioos:station:USF.COMPS:C10:1,2008-12-05T10:20:00Z,27.1690,-82.9260,18.64,1111122 
COMPS,ioos:station:USF.COMPS:C10:1,2008-12-05T10:40:00Z,27.1690,-82.9260,18.77,1111122 
COMPS,ioos:station:USF.COMPS:C10:1,2008-12-05T11:00:00Z,27.1690,-82.9260,18.8,1111122 
COMPS,ioos:station:USF.COMPS:C10:1,2008-12-05T11:20:00Z,27.1690,-82.9260,18.98,1111122 
COMPS,ioos:station:USF.COMPS:C10:1,2008-12-05T11:40:00Z,27.1690,-82.9260,19.13,1111122 
COMPS,ioos:station:USF.COMPS:C10:1,2008-12-05T12:00:00Z,27.1690,-82.9260,19.09,1111122 
COMPS,ioos:station:USF.COMPS:C10:1,2008-12-05T12:20:00Z,27.1690,-82.9260,19.17,1111122 
COMPS,ioos:station:USF.COMPS:C10:1,2008-12-05T12:40:00Z,27.1690,-82.9260,19.57,1111122 
COMPS,ioos:station:USF.COMPS:C10:1,2008-12-05T13:00:00Z,27.1690,-82.9260,19.67,1111122 
COMPS,ioos:station:USF.COMPS:C10:1,2008-12-05T13:20:00Z,27.1690,-82.9260,19.67,1111122 
COMPS,ioos:station:USF.COMPS:C10:1,2008-12-05T13:40:00Z,27.1690,-82.9260,19.68,1111122 
COMPS,ioos:station:USF.COMPS:C10:1,2008-12-05T14:00:00Z,27.1690,-82.9260,19.6,1111122 
COMPS,ioos:station:USF.COMPS:C10:1,2008-12-05T14:20:00Z,27.1690,-82.9260,19.81,1111122 
COMPS,ioos:station:USF.COMPS:C10:1,2008-12-05T14:40:00Z,27.1690,-82.9260,19.82,1111122 
COMPS,ioos:station:USF.COMPS:C10:1,2008-12-05T15:00:00Z,27.1690,-82.9260,19.79,1111122 
COMPS,ioos:station:USF.COMPS:C10:1,2008-12-05T15:20:00Z,27.1690,-82.9260,19.92,1111122 
COMPS,ioos:station:USF.COMPS:C10:1,2008-12-05T15:40:00Z,27.1690,-82.9260,19.76,1111122 
COMPS,ioos:station:USF.COMPS:C10:1,2008-12-05T16:00:00Z,27.1690,-82.9260,19.84,1111122 
COMPS,ioos:station:USF.COMPS:C10:1,2008-12-05T16:20:00Z,27.1690,-82.9260,20.04,1111122 
COMPS,ioos:station:USF.COMPS:C10:1,2008-12-05T16:40:00Z,27.1690,-82.9260,20.0,1111122 
COMPS,ioos:station:USF.COMPS:C10:1,2008-12-05T17:00:00Z,27.1690,-82.9260,20.09,1111122 
COMPS,ioos:station:USF.COMPS:C10:1,2008-12-05T17:20:00Z,27.1690,-82.9260,20.46,1111122 
COMPS,ioos:station:USF.COMPS:C10:1,2008-12-05T17:40:00Z,27.1690,-82.9260,20.81,1111122 
COMPS,ioos:station:USF.COMPS:C10:1,2008-12-05T18:00:00Z,27.1690,-82.9260,20.94,1111122 
COMPS,ioos:station:USF.COMPS:C10:1,2008-12-05T18:20:00Z,27.1690,-82.9260,21.13,1111122 
COMPS,ioos:station:USF.COMPS:C10:1,2008-12-05T18:40:00Z,27.1690,-82.9260,21.28,1111122 
COMPS,ioos:station:USF.COMPS:C10:1,2008-12-05T19:00:00Z,27.1690,-82.9260,20.74,1111122 
COMPS,ioos:station:USF.COMPS:C10:1,2008-12-05T19:20:00Z,27.1690,-82.9260,21.06,1111122 
COMPS,ioos:station:USF.COMPS:C10:1,2008-12-05T19:40:00Z,27.1690,-82.9260,20.85,1111122 
COMPS,ioos:station:USF.COMPS:C10:1,2008-12-05T20:00:00Z,27.1690,-82.9260,20.87,1111122 
COMPS,ioos:station:USF.COMPS:C10:1,2008-12-05T20:20:00Z,27.1690,-82.9260,21.13,1111122 
COMPS,ioos:station:USF.COMPS:C10:1,2008-12-05T20:40:00Z,27.1690,-82.9260,22.84,1111122 
COMPS,ioos:station:USF.COMPS:C10:1,2008-12-05T21:00:00Z,27.1690,-82.9260,21.92,1111122 
COMPS,ioos:station:USF.COMPS:C10:1,2008-12-05T21:20:00Z,27.1690,-82.9260,21.28,1111122 
COMPS,ioos:station:USF.COMPS:C10:1,2008-12-05T21:40:00Z,27.1690,-82.9260,21.28,1111122 
COMPS,ioos:station:USF.COMPS:C10:1,2008-12-05T22:00:00Z,27.1690,-82.9260,21.25,1111122 
COMPS,ioos:station:USF.COMPS:C10:1,2008-12-05T22:20:00Z,27.1690,-82.9260,20.99,1111122 
COMPS,ioos:station:USF.COMPS:C10:1,2008-12-05T22:40:00Z,27.1690,-82.9260,20.62,1111122 
COMPS,ioos:station:USF.COMPS:C10:1,2008-12-05T23:00:00Z,27.1690,-82.9260,20.54,1111122 
COMPS,ioos:station:USF.COMPS:C10:1,2008-12-05T23:20:00Z,27.1690,-82.9260,20.5,1111122 
COMPS,ioos:station:USF.COMPS:C10:1,2008-12-05T23:40:00Z,27.1690,-82.9260,20.39,1111122 
COMPS,ioos:station:USF.COMPS:C10:1,2008-12-06T00:00:00Z,27.1690,-82.9260,20.27,1111122 
COMPS,ioos:station:USF.COMPS:C10:1,2008-12-06T00:20:00Z,27.1690,-82.9260,20.12,1111122 
COMPS,ioos:station:USF.COMPS:C10:1,2008-12-06T00:40:00Z,27.1690,-82.9260,20.22,1111122 
COMPS,ioos:station:USF.COMPS:C10:1,2008-12-06T01:00:00Z,27.1690,-82.9260,20.23,1111122 
COMPS,ioos:station:USF.COMPS:C10:1,2008-12-06T01:20:00Z,27.1690,-82.9260,20.27,1111122 
COMPS,ioos:station:USF.COMPS:C10:1,2008-12-06T01:40:00Z,27.1690,-82.9260,20.3,1111122 
COMPS,ioos:station:USF.COMPS:C10:1,2008-12-06T02:00:00Z,27.1690,-82.9260,20.32,1111122 
COMPS,ioos:station:USF.COMPS:C10:1,2008-12-06T02:20:00Z,27.1690,-82.9260,20.31,1111122 
COMPS,ioos:station:USF.COMPS:C10:1,2008-12-06T02:40:00Z,27.1690,-82.9260,20.3,1111122 
COMPS,ioos:station:USF.COMPS:C10:1,2008-12-06T03:00:00Z,27.1690,-82.9260,20.33,1111122 
COMPS,ioos:station:USF.COMPS:C10:1,2008-12-06T03:20:00Z,27.1690,-82.9260,20.27,1111122 
COMPS,ioos:station:USF.COMPS:C10:1,2008-12-06T03:40:00Z,27.1690,-82.9260,19.41,1111122 
COMPS,ioos:station:USF.COMPS:C10:1,2008-12-06T05:00:00Z,27.1690,-82.9260,19.25,1111122 
COMPS,ioos:station:USF.COMPS:C10:1,2008-12-06T05:20:00Z,27.1690,-82.9260,19.35,1111122 
COMPS,ioos:station:USF.COMPS:C10:1,2008-12-06T05:40:00Z,27.1690,-82.9260,19.45,1111122 
COMPS,ioos:station:USF.COMPS:C10:1,2008-12-06T06:00:00Z,27.1690,-82.9260,19.6,1111122 
COMPS,ioos:station:USF.COMPS:C10:1,2008-12-06T06:20:00Z,27.1690,-82.9260,19.63,1111122 
COMPS,ioos:station:USF.COMPS:C10:1,2008-12-06T06:40:00Z,27.1690,-82.9260,19.73,1111122 
COMPS,ioos:station:USF.COMPS:C10:1,2008-12-06T07:00:00Z,27.1690,-82.9260,19.55,1111122 
COMPS,ioos:station:USF.COMPS:C10:1,2008-12-06T07:20:00Z,27.1690,-82.9260,19.47,1111122 
COMPS,ioos:station:USF.COMPS:C10:1,2008-12-06T07:40:00Z,27.1690,-82.9260,19.46,1111122 
COMPS,ioos:station:USF.COMPS:C10:1,2008-12-06T08:00:00Z,27.1690,-82.9260,19.54,1111122 
COMPS,ioos:station:USF.COMPS:C10:1,2008-12-06T08:20:00Z,27.1690,-82.9260,19.54,1111122 
COMPS,ioos:station:USF.COMPS:C10:1,2008-12-06T08:40:00Z,27.1690,-82.9260,19.52,1111122 
COMPS,ioos:station:USF.COMPS:C10:1,2008-12-06T09:00:00Z,27.1690,-82.9260,19.57,1111122 
COMPS,ioos:station:USF.COMPS:C10:1,2008-12-06T09:20:00Z,27.1690,-82.9260,19.58,1111122 
COMPS,ioos:station:USF.COMPS:C10:1,2008-12-06T09:40:00Z,27.1690,-82.9260,19.6,1111122 
COMPS,ioos:station:USF.COMPS:C10:1,2008-12-06T10:00:00Z,27.1690,-82.9260,19.48,1111122 
COMPS,ioos:station:USF.COMPS:C10:1,2008-12-06T10:20:00Z,27.1690,-82.9260,19.45,1111122 
COMPS,ioos:station:USF.COMPS:C10:1,2008-12-06T10:40:00Z,27.1690,-82.9260,19.09,1111122 
COMPS,ioos:station:USF.COMPS:C10:1,2008-12-06T11:00:00Z,27.1690,-82.9260,18.75,1111122 
COMPS,ioos:station:USF.COMPS:C10:1,2008-12-06T11:20:00Z,27.1690,-82.9260,18.69,1111122 
COMPS,ioos:station:USF.COMPS:C10:1,2008-12-06T11:40:00Z,27.1690,-82.9260,18.81,1111122 
COMPS,ioos:station:USF.COMPS:C10:1,2008-12-06T12:00:00Z,27.1690,-82.9260,18.75,1111122 
COMPS,ioos:station:USF.COMPS:C10:1,2008-12-06T12:20:00Z,27.1690,-82.9260,18.84,1111122 
COMPS,ioos:station:USF.COMPS:C10:1,2008-12-06T12:40:00Z,27.1690,-82.9260,19.35,1111122 
COMPS,ioos:station:USF.COMPS:C10:1,2008-12-06T13:00:00Z,27.1690,-82.9260,19.32,1111122 
COMPS,ioos:station:USF.COMPS:C10:1,2008-12-06T13:20:00Z,27.1690,-82.9260,19.17,1111122 
COMPS,ioos:station:USF.COMPS:C10:1,2008-12-06T13:40:00Z,27.1690,-82.9260,19.16,1111122 
COMPS,ioos:station:USF.COMPS:C10:1,2008-12-06T14:00:00Z,27.1690,-82.9260,18.65,1111122 
COMPS,ioos:station:USF.COMPS:C10:1,2008-12-06T14:20:00Z,27.1690,-82.9260,19.35,1111122 
COMPS,ioos:station:USF.COMPS:C10:1,2008-12-06T14:40:00Z,27.1690,-82.9260,19.84,1111122 
COMPS,ioos:station:USF.COMPS:C10:1,2008-12-06T15:00:00Z,27.1690,-82.9260,19.99,1111122 
COMPS,ioos:station:USF.COMPS:C10:1,2008-12-06T15:20:00Z,27.1690,-82.9260,19.8,1111122 
COMPS,ioos:station:USF.COMPS:C10:1,2008-12-06T15:40:00Z,27.1690,-82.9260,19.68,1111122 
COMPS,ioos:station:USF.COMPS:C10:1,2008-12-06T16:00:00Z,27.1690,-82.9260,19.76,1111122 
COMPS,ioos:station:USF.COMPS:C10:1,2008-12-06T16:20:00Z,27.1690,-82.9260,19.86,1111122 
COMPS,ioos:station:USF.COMPS:C10:1,2008-12-06T16:40:00Z,27.1690,-82.9260,20.08,1111122 
COMPS,ioos:station:USF.COMPS:C10:1,2008-12-06T17:00:00Z,27.1690,-82.9260,20.0,1111122 
COMPS,ioos:station:USF.COMPS:C10:1,2008-12-06T17:20:00Z,27.1690,-82.9260,20.18,1111122 
COMPS,ioos:station:USF.COMPS:C10:1,2008-12-06T17:40:00Z,27.1690,-82.9260,20.42,1111122 
COMPS,ioos:station:USF.COMPS:C10:1,2008-12-06T18:00:00Z,27.1690,-82.9260,20.77,1111122 
COMPS,ioos:station:USF.COMPS:C10:1,2008-12-06T18:20:00Z,27.1690,-82.9260,20.86,1111122 
COMPS,ioos:station:USF.COMPS:C10:1,2008-12-06T18:40:00Z,27.1690,-82.9260,20.91,1111122 
COMPS,ioos:station:USF.COMPS:C10:1,2008-12-06T19:00:00Z,27.1690,-82.9260,20.95,1111122 
COMPS,ioos:station:USF.COMPS:C10:1,2008-12-06T19:20:00Z,27.1690,-82.9260,21.01,1111122 
COMPS,ioos:station:USF.COMPS:C10:1,2008-12-06T19:40:00Z,27.1690,-82.9260,20.93,1111122 
COMPS,ioos:station:USF.COMPS:C10:1,2008-12-06T20:00:00Z,27.1690,-82.9260,21.44,1111122 
COMPS,ioos:station:USF.COMPS:C10:1,2008-12-06T20:20:00Z,27.1690,-82.9260,21.56,1111122 
COMPS,ioos:station:USF.COMPS:C10:1,2008-12-06T20:40:00Z,27.1690,-82.9260,21.62,1111122 
COMPS,ioos:station:USF.COMPS:C10:1,2008-12-06T21:00:00Z,27.1690,-82.9260,21.74,1111122 
COMPS,ioos:station:USF.COMPS:C10:1,2008-12-06T21:20:00Z,27.1690,-82.9260,21.67,1111122 
COMPS,ioos:station:USF.COMPS:C10:1,2008-12-06T21:40:00Z,27.1690,-82.9260,21.82,1111122 
COMPS,ioos:station:USF.COMPS:C10:1,2008-12-06T22:00:00Z,27.1690,-82.9260,21.79,1111122 
COMPS,ioos:station:USF.COMPS:C10:1,2008-12-06T22:20:00Z,27.1690,-82.9260,21.7,1111122 
COMPS,ioos:station:USF.COMPS:C10:1,2008-12-06T22:40:00Z,27.1690,-82.9260,21.72,1111122 
COMPS,ioos:station:USF.COMPS:C10:1,2008-12-06T23:00:00Z,27.1690,-82.9260,21.84,1111122 
COMPS,ioos:station:USF.COMPS:C10:1,2008-12-06T23:20:00Z,27.1690,-82.9260,21.88,1111122 